[ hide orbit diagram ]
For accurate long-term ephemerides, please instead use our Horizons system.This orbit viewer was implemented using two-body methods, and hence should not be used for determining accurate long-term trajectories (over several years or decades) or planetary encounter circumstances.
Orbital Elements at Epoch 2459000.5 (2020-May-31.0) TDB
Reference: JPL 28 (heliocentric ecliptic J2000)
Element | Value | Uncertainty (1-sigma) | Units |
e | .1742075105678787 | 4.4591e-08 | |
a | 2.691228545764293 | 1.27e-08 | au |
q | 2.222396320437483 | 1.231e-07 | au |
i | 3.191946283369207 | 4.0087e-06 | deg |
node | 308.6406317444701 | 7.5689e-05 | deg |
peri | 62.33822924362516 | 7.6309e-05 | deg |
M | 203.1061404435601 | 1.1246e-05 | deg |
tp | 2459703.293512443020 (2022-May-03.79351244) | 5.2782e-05 | TDB |
period | 1612.591246048559 4.42 | 1.1415e-05 3.125e-08 | d yr |
n | .2232431813592764 | 1.5803e-09 | deg/d |
Q | 3.160060771091103 | 1.4913e-08 | au |
|
| | Orbit Determination Parameters
Additional Information
|
[ show covariance matrix ]
Physical Parameter Table
Parameter |
Symbol |
Value |
Units |
Sigma |
Reference |
Notes |
absolute magnitude |
H |
14.4 |
|
n/a |
MPO431577 |
|
diameter |
diameter |
5.773 |
km |
0.193 |
urn:nasa:pds:neowise_diameters_albedos::2.0[mainbelt] (http://adsabs.harvard.edu/abs/2011ApJ...741...68M) |
|
geometric albedo |
albedo |
0.121 |
|
0.013 |
urn:nasa:pds:neowise_diameters_albedos::2.0[mainbelt] (http://adsabs.harvard.edu/abs/2011ApJ...741...68M) |
|
|
6766 Kharms (1982 UC6) Discovered 1982-Oct-20 by Karachkina, L. G. at Nauchnyj |
Reference: DISCOVERY.DB | Last Updated: 2003-08-29 |
|
[ show close-approach data ]
Alternate Designations
1982 UC6 = 1960 WY = 1986 RU8 = 1988 DJ4 = 1991 XP1 |
|
|